Regional Weather Roundup
Issued by NWS

Home | Current Version | Previous Version | Text Only | Print | Product List | Glossary On
Versions: 1 2 3 4 5 6 7 8 9 10 11 12 13 14 15 16 17 18 19 20 21 22 23 24 25 26 27 28 29 30 31 32 33 34 35 36 37 38 39 40 41 42 43 44 45 46 47 48 49 50
000
ASUS45 KBOU 060407
RWRCO

WEATHER ROUNDUP FOR COLORADO
NATIONAL WEATHER SERVICE DENVER/BOULDER CO
1000 PM MDT TUE MAY 05 2015

NOTE: "FAIR" INDICATES FEW OR NO CLOUDS BELOW 12000 FEET WITH NO
SIGNIFICANT WEATHER AND/OR OBSTRUCTIONS TO VISIBILITY.

COZ001>005-013-030-031-060500-
...NORTHWEST COLORADO...

CITY           SKY/WX    TMP DP  RH WIND       PRES   REMARKS
CRAIG          CLOUDY    51  45  79 W5        29.84R
HAYDEN         CLOUDY    48  43  81 N3        29.84R
MEEKER         LGT RAIN  51  46  83 SW7       29.85R
MOUNT WERNER   NOT AVBL
STEAMBOAT SPGS CLOUDY    47  42  80 SW5       29.85S
WALDEN         CLOUDY    41  37  87 S5        29.87R
$$

COZ006>008-011-060500-
...WEST CENTRAL VALLEYS...

CITY           SKY/WX    TMP DP  RH WIND       PRES   REMARKS
GRAND JUNCTION CLOUDY    53  51  93 CALM      29.82R
MONTROSE       LGT RAIN  51  48  89 NW3       29.88R
EAGLE          CLOUDY    48  45  87 NW5       29.89R
RIFLE          LGT RAIN  50  47  89 CALM      29.84R
DELTA          CLOUDY    56  51  82 CALM      29.85R
NUCLA          CLOUDY    50  48  93 CALM      29.92R
$$

COZ017>023-064>068-060500-
...SOUTHWEST COLORADO...

CITY           SKY/WX    TMP DP  RH WIND       PRES   REMARKS
DURANGO        LGT RAIN  47  46  97 SW8       29.94R FOG
CORTEZ         CLOUDY    50  48  93 NE6       29.91R
PAGOSA SPRINGS LGT RAIN  45  44  99 E5        29.97R
TELLURIDE      RAIN      40  40 100 CALM      30.01R
WOLF CREEK PAS NOT AVBL
$$

COZ009-010-012-014-032>034-037-058>063-060500-
...CENTRAL COLORADO...

CITY           SKY/WX    TMP DP  RH WIND       PRES   REMARKS
ASPEN          LGT RAIN N/A N/A N/A CALM      29.91R
BUENA VISTA    NOT AVBL
COPPER MTN     CLOUDY    36  32  87 W5        30.03R
BERTHOUD PASS  CLOUDY    28  19  69 NW10      30.05S WCI  19
COTTONWOOD PAS RAIN      39  37  93 CALM      29.96S
GUNNISON       CLOUDY    43  37  81 N8        29.94R
KREMMLING      LGT RAIN  46  41  81 W6        29.88R
LEADVILLE      LGT RAIN  36  35  96 CALM      29.94S
MONARCH PASS   FOG       30  28  93 MISG      30.13R VSB<1/4
SALIDA         CLOUDY    46  44  95 N7        29.96R
SUNLIGHT       LGT SNOW  36  34  93 CALM      30.03R VSB 3/4
WILKERSON PASS LGT SNOW  32  32 100 MISG      30.02S VSB 3/4
$$

COZ069>075-060500-
...SAN LUIS VALLEY/SANGRE DE CRISTO MOUNTAINS...

CITY           SKY/WX    TMP DP  RH WIND       PRES   REMARKS
ALAMOSA        CLOUDY    46  42  86 CALM      29.91R
LA VETA PASS   DRIZZLE  N/A N/A N/A MISG      29.96S
SAGUACHE       CLOUDY    43  41  93 N3        29.93R
$$

COZ035-036-038>040-060500-
...NORTHERN COLORADO FRONT RANGE...

CITY           SKY/WX    TMP DP  RH WIND       PRES   REMARKS
DENVER INTL AP LGT RAIN  50  48  93 NW10      29.79S
DMNS CITY PARK   N/A     50  48  94 N2G8      29.80S
AURORA         LGT RAIN  48  48 100 NW8       29.81S
FRONT RANGE AP NOT AVBL
ERIE MUNI ARPT CLOUDY    50  49  97 N5        29.80S
BOULDER MUN AP CLOUDY    50  50 100 N5        29.80S
CENTENNIAL     LGT RAIN  48  48 100 NW7       29.81S
BROOMFIELD     DRIZZLE   50  50 100 N7        29.82S FOG
FORT COLLINS   CLOUDY    50  46  87 NW7       29.82S
LONGMONT       CLOUDY    52  50  92 N3        29.82S
$$

COZ041-046-047-076>085-087-088-060500-
...PIKES PEAK/PALMER DIVIDE AND SOUTHERN FOOTHILLS...

CITY           SKY/WX    TMP DP  RH WIND       PRES   REMARKS
COLO. SPRINGS  CLOUDY    48  42  80 NW9       29.82R
A. F. ACADEMY  CLOUDY    46  45  99 N2        29.82S
ELLICOTT       CLOUDY   N/A N/A N/A CALM      29.81R
FALCON         CLOUDY    46  42  88 NW12      29.84R
FORT CARSON    DRIZZLE   48  44  85 SW6       29.80R
LIMON          CLOUDY    49  47  93 W12       29.77R
MONUMENT HILL  DRIZZLE   43  41  93 W7        29.83S
TRINIDAD       PTCLDY    50  47  89 SE3       29.82S
$$

COZ042>045-048>051-090-091-060500-
...NORTHEAST COLORADO...

CITY           SKY/WX    TMP DP  RH WIND       PRES   REMARKS
GREELEY ARPT   CLOUDY    52  46  82 NW12      29.79F
AKRON          CLOUDY    53  53 100 SE20G29   29.74S
BURLINGTON     MOCLDY    54  51  90 S15       29.77S
WRAY           LGT RAIN N/A N/A N/A E15G24    29.77S
STERLING       CLOUDY    54  54 100 E9        29.75S
HOLYOKE        NOT AVBL
FORT MORGAN    CLOUDY    53  51  95 E12       29.75S
$$

COZ086-089-092>099-060500-
...SOUTHEAST COLORADO...

CITY           SKY/WX    TMP DP  RH WIND       PRES   REMARKS
PUEBLO         MOCLDY    50  48  93 W5        29.78S
LA JUNTA       MOCLDY    54  51  90 SW10      29.78R
LAMAR          MOCLDY    55  52  89 SW7       29.76R
SPRINGFIELD      N/A     49  47  93 S8        29.82R
$$



USA.gov is the U.S. government's official web portal to all federal, state and local government web resources and services.